FW8967 Weather Reports


time (UTC)temp
C
wind
direction
speed
KPH
gust
KPH
rain 1hr
cm
rain 24hr
cm
rain mn
cm
humidity
%
barometer
mb
20260505130114 18 0 0.0 0.0 0.00 0.00 0.00 55 1014.6
20260505124611 17 0 0.0 1.6 0.00 0.00 0.00 59 1014.5
20260505123115 15 0 0.0 0.0 0.00 0.00 0.00 68 1014.4
20260505121549 12 0 0.0 0.0 0.00 0.00 0.00 74 1014.5
20260505120056 11 0 0.0 0.0 0.00 0.00 0.00 77 1014.4
20260505114551 10 0 0.0 0.0 0.00 0.00 0.00 78 1014.6
20260505113053 10 0 0.0 0.0 0.00 0.00 0.00 79 1014.4
20260505111550 10 0 0.0 0.0 0.00 0.00 0.00 77 1014.1
20260505101550 10 0 0.0 0.0 0.00 0.00 0.00 76 1013.6
20260505100053 10 0 0.0 0.0 0.00 0.00 0.00 75 1013.5
20260505094554 11 0 0.0 0.0 0.00 0.00 0.00 74 1013.4
20260505093050 11 0 0.0 0.0 0.00 0.00 0.00 72 1013.3
20260505091608 11 0 0.0 0.0 0.00 0.00 0.00 71 1013.4
20260505090109 12 0 0.0 0.0 0.00 0.00 0.00 69 1013.4
20260505084607 12 0 0.0 0.0 0.00 0.00 0.00 67 1013.3
20260505083105 13 0 0.0 0.0 0.00 0.00 0.00 66 1013.2
20260505081558 13 0 0.0 0.0 0.00 0.00 0.00 61 1012.9
20260505080100 15 0 0.0 6.4 0.00 0.00 0.00 57 1012.9
20260505074546 14 243 0.0 6.4 0.00 0.00 0.00 59 1012.8
20260505073053 13 0 0.0 3.2 0.00 0.00 0.00 64 1012.7
20260505071603 13 0 0.0 3.2 0.00 0.00 0.00 64 1012.7
20260505070054 13 0 0.0 4.8 0.00 0.00 0.00 62 1012.5
20260505064550 13 0 0.0 0.0 0.00 0.00 0.00 62 1012.6
20260505063051 13 0 0.0 0.0 0.00 0.00 0.00 62 1012.6
20260505061552 13 0 0.0 0.0 0.00 0.00 0.00 59 1012.5
20260505054553 15 0 0.0 1.6 0.00 0.00 0.00 54 1012.4
20260505053049 15 0 0.0 0.0 0.00 0.00 0.00 52 1012.3
20260505051550 16 0 0.0 3.2 0.00 0.00 0.00 53 1012.3
20260505041554 17 0 0.0 8.0 0.00 0.00 0.00 46 1012.0
20260505040056 17 231 0.0 6.4 0.00 0.00 0.00 45 1012.2
20260505034550 18 284 0.0 4.8 0.00 0.00 0.00 43 1012.3
20260505033049 18 285 0.0 3.2 0.00 0.00 0.00 44 1012.4
20260505031551 18 0 0.0 8.0 0.00 0.00 0.00 45 1012.3
20260505030108 18 242 0.0 8.0 0.00 0.00 0.00 46 1012.3
20260505024550 18 238 0.0 4.8 0.00 0.00 0.00 47 1012.4
20260505023047 18 293 1.6 4.8 0.00 0.00 0.00 48 1012.4
20260505021551 18 0 0.0 4.8 0.00 0.00 0.00 49 1012.4
20260505020059 18 277 0.0 6.4 0.00 0.00 0.00 52 1012.5
20260505014603 19 0 1.6 8.0 0.00 0.00 0.00 48 1012.5
20260505013053 20 117 0.0 8.0 0.00 0.00 0.00 47 1012.4
20260505011557 19 0 1.6 12.9 0.00 0.00 0.00 48 1012.2
20260505010055 18 0 1.6 12.9 0.00 0.00 0.00 51 1012.1
20260505004551 17 0 0.0 4.8 0.00 0.00 0.00 58 1011.8
20260505003057 17 0 0.0 0.0 0.00 0.00 0.00 56 1011.5
20260505001546 19 0 0.0 0.0 0.00 0.00 0.00 51 1011.5
20260505000051 20 0 0.0 0.0 0.00 0.00 0.00 48 1011.5
20260504234547 22 0 0.0 1.6 0.00 0.00 0.00 40 1011.3
20260504233050 23 0 0.0 4.8 0.00 0.00 0.00 35 1011.2
20260504231549 24 274 1.6 11.3 0.00 0.00 0.00 35 1011.1
20260504230049 24 240 1.6 14.5 0.00 0.00 0.00 34 1011.1
20260504224547 25 249 3.2 8.0 0.00 0.00 0.00 35 1011.3
20260504223100 25 250 0.0 8.0 0.00 0.00 0.00 35 1011.1
20260504221545 25 121 3.2 9.7 0.00 0.00 0.00 36 1011.2
20260504220051 25 213 3.2 16.1 0.00 0.00 0.00 36 1011.4
20260504214548 25 296 0.0 8.0 0.00 0.00 0.00 36 1011.5
20260504213055 24 167 1.6 11.3 0.00 0.00 0.00 37 1011.6
20260504211633 25 274 1.6 8.0 0.00 0.00 0.00 36 1011.6
20260504210054 24 99 3.2 9.7 0.00 0.00 0.00 37 1011.5
20260504204550 24 124 3.2 12.9 0.00 0.00 0.00 39 1011.5
20260504203057 23 246 1.6 6.4 0.00 0.00 0.00 42 1011.6
20260504201557 23 0 0.0 3.2 0.00 0.00 0.00 46 1012.0
20260504200047 22 0 0.0 6.4 0.00 0.00 0.00 42 1012.1
20260504194551 22 290 1.6 8.0 0.00 0.00 0.00 42 1012.2
20260504193051 22 248 1.6 4.8 0.00 0.00 0.00 41 1012.4
20260504191606 22 96 0.0 3.2 0.00 0.00 0.00 41 1012.7
20260504190104 21 245 3.2 8.0 0.00 0.00 0.00 42 1012.7
20260504184552 21 121 0.0 6.4 0.00 0.00 0.00 44 1012.8
20260504183045 20 248 1.6 8.0 0.00 0.00 0.00 45 1013.3
20260504181559 20 277 3.2 9.7 0.00 0.00 0.00 45 1013.7
20260504180052 20 119 1.6 19.3 0.00 0.00 0.00 45 1013.6
20260504174553 20 232 1.6 20.9 0.00 0.00 0.00 43 1013.7
20260504173055 20 259 4.8 11.3 0.00 0.00 0.00 41 1013.8
20260504171551 21 281 3.2 16.1 0.00 0.00 0.00 40 1013.7